Location: Campillo
(40.8621°N, 4.2488°W)
Time: 16:57:04
(UTC+00:00)

Cosmos 2084 - Pass Details

Date: 02 October 2021
Orbit: 528 x 653 km, 62.8° (Epoch: 25 October)

Event Time Altitude Azimuth Distance (km) Brightness Sun altitude
Exits shadow 04:08:36 28° 354° (N) 1,027 4.7 -24.4°
Drops below altitude 10° 04:11:02 10° 21° (NNE) 1,823 6.4 -23.9°
Sets 04:13:25 0° 30° (NNE) 2,739 7.6 -23.5°
